FENGYUN 1C DEB

Satellite information

Favourite Embed

Satellite Type and Status

DEBRISIN ORBIT

Key statistics

Satellite FENGYUN 1C DEB at a glance.

Uptime

9494

Days in orbit

Revolutions

≈ 14.3

Per day

Orbit

SSO

Sun Synchronous Orbit

Inclination

98.4

Latest

Satellite identification and parameters

Extended collection of information and parameters for FENGYUN 1C DEB.

Object identification

Identified? True

Debris? True

Object name: FENGYUN 1C DEB

International designator: 1999-025AJM

Object number (NORAD): 30523

Object ID (CCSDS): 30523

Country: PEOPLES REPUBLIC OF CHINA (PRC)

Current information (Y/N): Y

RCS size: SMALL

Orbital parameters

Period: 100.875 minutes

Inclination: 98.4423 deg

SMA: 7178.197 km

Apoapsis: 976.075 km

Periapsis: 624.049 km

RAAN: 112.0843 deg

Eccentricy: 0.0245205

Argument of periapsis: 35.8681 deg

Mean anomaly: 27.8613 deg

Mean motion: 14.27511666 rev/day

Mean motion (dot): 0.00001595 rev/day2

B* drag term: 0.00048521 1/REarth

Two-line elements (TLE)

Creation date: May 7, 2025, 3:14 a.m.

Reference frame: TEME

Reference center: EARTH

Epoch: May 6, 2025, 9:04 p.m. UTC

TLE line 0: 0 FENGYUN 1C DEB

TLE line 1: 1 30523U 99025AJM 25126.87829778 .00001595 00000-0 48521-3 0 9993

TLE line 2: 2 30523 98.4423 112.0843 0245205 35.8681 27.8613 14.27511666949630

Live tracking on map

Real-time ground track for satellite FENGYUN 1C DEB.

In-orbit conjunctions

A list of the most updated potential collisions computed for object FENGYUN 1C DEB.

Target Orbit TCA Probability of collision Miss distance Type
COSMOS 1992 LEO 2025-03-25 21:26:15 0.000192273 285.0 (m) PAYLOAD
CZ-4 DEB SSO 2025-01-17 13:41:01 0.0001164521 252.0 (m) DEBRIS
SL-16 DEB LEO 2024-11-09 18:41:34 0.0001760217 354.0 (m) DEBRIS

Associated space launch

Chinese polar orbiting meteorological satellite

FENGYUN 1C DEB was lifted into orbit during the mission ‘Long March 4B | Feng Yun 1C’, on board a Long March 4B space rocket.

The launch took place on May 10, 1999, 1:33 a.m. from Launch Complex 7.

For more information about the launch, click the button.

Launch to space Long March 4B | Feng Yun 1C
Long March 4B | Feng Yun 1C

Agency: N/A

Status: Launch Successful

Launch date: May 10, 1999, 1:33 a.m. UTC

Rocket: Long March 4B

Launch pad: Launch Complex 7

Location: Taiyuan Satellite Launch Center, People's Republic of China

...

Latest news about this satellite

There are no fresh news available about this satellite. Check back as we update our databases every day.


Newsletter sign-up

Weekly statistics, charts and insights to help you stay on top of the space industry.